Waarnemingen

Advertentie
Mijn weer
Helgoland, Duitsland (10015): temperatuur & dauwpunt: 12.12.2017 13:00:00 - 18.12.2017 13:00:00 (CET)Helgoland, Duitsland (10015): temperatuur 5cm: 12.12.2017 13:00:00 - 18.12.2017 13:00:00 (CET)Helgoland, Duitsland (10015): windsnelheid & windstoten: 12.12.2017 13:00:00 - 18.12.2017 13:00:00 (CET)Helgoland, Duitsland (10015): windrichting: 12.12.2017 13:00:00 - 18.12.2017 13:00:00 (CET)Helgoland, Duitsland (10015): luchtdruk: 12.12.2017 13:00:00 - 18.12.2017 13:00:00 (CET)Helgoland, Duitsland (10015): zicht: 12.12.2017 13:00:00 - 18.12.2017 13:00:00 (CET)Helgoland, Duitsland (10015): Zonneschijnduur: 12.12.2017 13:00:00 - 18.12.2017 13:00:00 (CET)Helgoland, Duitsland (10015): neerslag: 12.12.2017 13:00:00 - 18.12.2017 13:00:00 (CET)
Datum & Tijd tt [°C] td [°C] tt 5cm [°C] ff [km/u] ff [kn] fx [km/u] fx [kn] dd ppp [hPa] vv [km] sd [min] rr [mm]
18.12.2017 13:00:00 3,7 0,9 3,7 6 3 18 10 WZW 1024,1 - 0 0,0
18.12.2017 12:00:00 3,9 1,3 3,8 13 7 19 10 Z 1023,4 - 0 0,0
18.12.2017 11:00:00 3,8 0,9 3,6 13 7 17 9 ZZO 1023,0 - 0 0,0
18.12.2017 10:00:00 3,6 1,2 3,3 11 6 22 12 ZZO 1022,0 - 0 0,0
18.12.2017 09:00:00 3,5 1,3 3,1 11 6 23 12 Z 1021,0 - 0 0,0
18.12.2017 08:00:00 3,3 1,4 3,1 20 11 32 17 Z 1019,5 14 0 0,0
18.12.2017 07:00:00 3,3 1,4 3,1 29 16 42 23 Z 1018,3 15 0 0,0
18.12.2017 06:00:00 3,4 1,4 3,1 36 19 48 26 Z 1017,3 16 0 0,0
18.12.2017 05:00:00 3,4 1,7 3,1 40 21 53 29 Z 1016,3 11 0 0,0
18.12.2017 04:00:00 3,5 1,9 3,0 45 24 56 30 Z 1015,8 9 0 0,1
18.12.2017 03:00:00 3,5 2,0 3,0 46 25 54 29 Z 1015,8 7 0 0,3
18.12.2017 02:00:00 3,3 1,9 2,9 42 23 56 31 Z 1015,9 8 0 0,4
18.12.2017 01:00:00 3,1 1,4 2,6 46 25 55 30 ZZW 1016,1 5 0 0,9
18.12.2017 00:00:00 3,8 2,1 3,2 44 24 53 29 ZZW 1016,4 4,8 0 0,0
17.12.2017 23:00:00 4,5 2,6 4,1 42 23 50 27 ZZW 1017,0 11 0 0,0
17.12.2017 22:00:00 5,0 2,8 4,3 41 22 49 26 ZZW 1017,6 20 0 0,0
17.12.2017 21:00:00 5,1 2,6 4,2 39 21 46 25 ZZW 1017,9 - 0 0,0
17.12.2017 20:00:00 5,1 2,7 4,0 37 20 44 24 ZZW 1018,2 - 0 0,0
17.12.2017 19:00:00 5,1 2,8 3,9 36 20 45 24 ZW 1018,3 - 0 0,0
17.12.2017 18:00:00 5,3 2,7 4,0 23 12 41 22 ZZW 1018,8 - 0 0,2
17.12.2017 17:00:00 5,4 2,8 4,2 30 16 34 19 ZZW 1019,0 - 0 0,0
17.12.2017 16:00:00 5,3 1,8 4,2 29 16 36 19 ZZW 1019,5 - 14 0,0
17.12.2017 15:00:00 5,5 1,0 3,6 21 11 25 14 ZZW 1019,8 - 60 0,0
17.12.2017 14:00:00 5,5 1,1 5,7 18 10 22 12 Z 1019,9 - 60 0,0
17.12.2017 13:00:00 5,0 1,0 4,4 14 8 18 10 Z 1019,9 29 25 0,0
17.12.2017 12:00:00 5,4 0,5 5,6 5 3 7 4 ZO 1020,2 70 53 0,0
17.12.2017 11:00:00 4,5 0,9 4,3 5 3 10 5 O 1020,4 64 16 0,0
17.12.2017 10:00:00 3,9 1,1 1,7 10 5 21 12 NO 1019,7 44 2 0,0
17.12.2017 09:00:00 4,6 0,3 3,1 13 7 27 14 N 1019,1 70 0 0,0
17.12.2017 08:00:00 4,6 -0,2 3,5 20 11 32 18 NNW 1018,3 70 0 0,0
17.12.2017 07:00:00 4,7 -1,4 3,5 25 13 37 20 NNW 1017,7 70 0 0,0
17.12.2017 06:00:00 4,7 -1,2 3,4 19 10 31 17 N 1017,1 70 0 0,0
17.12.2017 05:00:00 4,3 -0,9 2,1 17 9 29 16 N 1016,2 70 0 0,0
17.12.2017 04:00:00 4,2 -0,4 1,5 22 12 28 15 NNO 1015,3 70 0 0,0
17.12.2017 03:00:00 4,8 0,7 2,3 20 11 42 23 NNO 1014,6 52 0 0,0
17.12.2017 02:00:00 5,1 1,0 2,9 18 10 45 24 NW 1013,6 70 0 0,0
17.12.2017 01:00:00 5,0 1,2 3,0 21 11 54 29 NW 1013,2 26 0 0,2
17.12.2017 00:00:00 4,9 0,8 2,5 21 11 34 19 NW 1012,4 70 0 0,0
16.12.2017 23:00:00 4,4 0,4 1,4 11 6 31 17 NW 1011,8 64 0 0,4
16.12.2017 22:00:00 4,7 1,0 3,1 23 12 38 20 WNW 1011,3 62 0 0,6
16.12.2017 21:00:00 4,6 1,4 3,0 27 15 52 28 N 1010,8 60 0 0,2
16.12.2017 20:00:00 5,6 1,3 3,6 29 16 41 22 NW 1010,0 64 0 0,4
16.12.2017 19:00:00 5,4 1,1 3,1 21 11 37 20 NW 1009,3 70 0 0,1
16.12.2017 18:00:00 4,2 1,0 2,1 28 15 45 25 NNW 1008,9 70 0 0,6
16.12.2017 17:00:00 4,8 0,6 3,1 10 5 34 18 W 1008,2 47 0 0,0
16.12.2017 16:00:00 4,3 0,9 1,6 11 6 42 23 NNW 1007,5 70 0 0,2
16.12.2017 15:00:00 4,1 0,6 3,2 36 19 46 25 NNW 1007,3 42 5 0,1
16.12.2017 14:00:00 5,5 1,2 4,0 23 12 50 27 NW 1006,2 24 11 0,1
16.12.2017 13:00:00 6,4 2,0 7,2 29 16 40 22 WNW 1006,0 24 55 0,0
16.12.2017 12:00:00 6,2 1,1 6,1 26 14 33 18 NW 1005,4 21 26 0,0
16.12.2017 11:00:00 3,9 1,4 1,8 8 4 44 24 WZW 1005,2 44 20 0,4
16.12.2017 10:00:00 4,4 1,2 3,4 22 12 37 20 NNW 1004,6 24 6 0,0
16.12.2017 09:00:00 3,7 0,5 1,9 16 9 40 22 NNW 1003,9 63 0 0,3
16.12.2017 08:00:00 4,3 0,5 2,6 31 17 49 26 NNW 1003,2 70 0 0,1
16.12.2017 07:00:00 5,5 0,6 3,6 27 15 35 19 NW 1002,5 70 0 0,0
16.12.2017 06:00:00 4,7 1,0 2,3 13 7 50 27 NW 1002,2 70 0 0,0
16.12.2017 05:00:00 5,1 1,1 3,5 30 16 42 23 NW 1002,0 57 0 0,0
16.12.2017 04:00:00 5,3 1,7 3,7 29 16 40 22 NW 1001,5 67 0 0,1
16.12.2017 03:00:00 5,1 1,8 2,4 8 4 35 19 NW 1000,9 - 0 0,0
16.12.2017 02:00:00 5,8 2,7 3,5 14 7 36 19 W 1000,2 - 0 0,2
16.12.2017 01:00:00 5,7 2,4 3,9 18 10 23 13 W 1000,1 70 0 0,0
16.12.2017 00:00:00 5,6 2,0 3,3 19 10 38 21 WNW 1000,0 70 0 0,0
15.12.2017 23:00:00 5,8 2,6 4,0 19 10 29 16 W 999,4 70 0 0,1
15.12.2017 22:00:00 5,7 3,0 5,0 24 13 31 17 W 999,3 30 0 0,0
15.12.2017 21:00:00 5,4 3,0 4,6 19 11 26 14 W 998,8 - 0 0,0
15.12.2017 20:00:00 5,5 2,9 4,9 25 13 32 18 W 998,4 - 0 0,0
15.12.2017 19:00:00 5,5 2,2 4,2 23 13 29 16 WZW 997,8 - 0 0,0
15.12.2017 18:00:00 5,2 1,7 3,8 19 10 29 15 WZW 997,3 21 0 0,0
15.12.2017 17:00:00 4,7 2,3 4,4 22 12 32 17 WZW 997,1 12 0 0,0
15.12.2017 16:00:00 4,2 2,0 4,0 19 10 32 17 WZW 996,7 11 0 0,0
15.12.2017 15:00:00 4,2 1,7 4,0 26 14 35 19 WZW 995,9 11 0 0,0
15.12.2017 14:00:00 3,9 1,7 3,9 23 13 33 18 WZW 995,1 10 0 0,0
15.12.2017 13:00:00 3,9 2,2 4,1 26 14 34 18 WZW 994,6 9 0 0,0
15.12.2017 12:00:00 3,6 2,1 4,0 26 14 38 20 WZW 994,1 8 0 0,0
15.12.2017 11:00:00 4,0 2,4 4,0 29 16 40 22 WZW 993,7 7 0 0,0
15.12.2017 10:00:00 3,8 2,4 3,8 27 15 38 21 WZW 992,8 5 0 0,0
15.12.2017 09:00:00 3,9 2,5 3,7 32 17 40 22 ZW 992,0 6 0 0,0
15.12.2017 08:00:00 4,1 2,6 3,7 27 14 38 20 ZW 991,3 7 0 0,0
15.12.2017 07:00:00 3,8 2,4 3,6 26 14 40 22 ZW 990,4 8 0 0,0
15.12.2017 06:00:00 3,8 2,2 3,5 30 16 40 22 ZZW 989,8 8 0 0,0
15.12.2017 05:00:00 4,1 2,6 3,7 35 19 44 24 ZW 989,0 8 0 0,0
15.12.2017 04:00:00 4,4 2,8 4,2 32 17 40 21 ZW 988,7 9 0 0,0
15.12.2017 03:00:00 4,3 2,8 4,2 31 17 43 23 ZW 988,3 7 0 0,0
15.12.2017 02:00:00 4,7 3,0 4,4 35 19 44 24 ZW 987,8 8 0 0,0
15.12.2017 01:00:00 4,7 2,7 4,4 36 20 46 25 ZW 987,5 11 0 0,0
15.12.2017 00:00:00 4,8 2,7 4,6 36 19 49 26 ZW 987,4 13 0 0,0
14.12.2017 23:00:00 4,9 3,0 4,6 41 22 52 28 ZW 987,0 13 0 0,0
14.12.2017 22:00:00 4,9 2,8 4,4 41 22 54 29 ZW 987,0 17 0 0,0
14.12.2017 21:00:00 5,0 3,0 4,7 46 25 55 30 ZW 986,9 16 0 0,0
14.12.2017 20:00:00 5,1 3,2 4,5 41 22 55 30 ZW 986,8 19 0 0,0
14.12.2017 19:00:00 4,8 2,6 4,1 45 25 54 29 ZW 986,6 20 0 0,0
14.12.2017 18:00:00 5,3 2,0 4,2 34 18 49 26 ZW 986,5 33 0 0,0
14.12.2017 17:00:00 5,5 2,4 4,2 31 17 56 30 WZW 986,4 26 0 0,0
14.12.2017 16:00:00 6,4 2,8 5,2 35 19 54 29 WZW 986,1 18 0 0,5
14.12.2017 15:00:00 5,2 2,2 4,2 34 18 51 28 WZW 986,1 22 0 0,0
14.12.2017 14:00:00 5,9 1,2 4,5 42 23 56 30 W 985,5 30 0 0,6
14.12.2017 13:00:00 4,0 2,6 3,5 49 26 64 34 ZW 985,4 14 0 2,5
14.12.2017 12:00:00 3,7 1,2 2,9 32 18 58 32 WZW 985,7 2,8 0 0,2
14.12.2017 11:00:00 5,1 2,1 4,1 47 26 61 33 WZW 985,1 21 0 0,3
14.12.2017 10:00:00 6,0 0,4 5,1 35 19 63 34 WZW 984,3 29 0 0,0
14.12.2017 09:00:00 6,7 2,1 5,7 39 21 54 29 W 983,5 25 0 0,1
14.12.2017 08:00:00 6,7 1,0 5,3 41 22 54 29 W 983,0 24 0 0,0
14.12.2017 07:00:00 6,4 1,4 4,4 41 22 69 38 W 982,2 26 0 0,3
14.12.2017 06:00:00 6,6 1,9 5,4 41 22 61 33 W 981,7 16 0 0,0
14.12.2017 05:00:00 6,7 2,3 5,4 48 26 67 36 W 981,1 23 0 0,0
14.12.2017 04:00:00 7,1 2,7 6,0 57 31 77 41 W 980,2 19 0 0,0
14.12.2017 03:00:00 7,0 3,2 5,7 51 28 69 37 W 979,7 31 0 0,0
14.12.2017 02:00:00 6,1 2,4 5,0 55 30 83 45 WNW 978,7 34 0 1,2
14.12.2017 01:00:00 5,3 3,6 4,6 45 24 63 34 ZZW 978,6 8 0 2,7
14.12.2017 00:00:00 4,8 2,7 4,1 49 27 65 35 Z 979,9 5 0 2,6
13.12.2017 23:00:00 5,1 4,0 4,7 46 25 64 35 Z 981,6 2,1 0 0,7
13.12.2017 22:00:00 5,4 3,8 5,2 52 28 64 34 Z 983,6 7 0 0,0
13.12.2017 21:00:00 5,2 4,2 5,1 50 27 59 32 Z 985,3 7 0 0,0
13.12.2017 20:00:00 5,2 4,4 5,1 47 25 56 30 ZZW 986,9 6 0 0,0
13.12.2017 19:00:00 4,9 4,1 4,8 43 23 53 29 ZZW 988,1 8 0 0,0
13.12.2017 18:00:00 4,6 3,6 4,4 44 24 56 30 ZZW 989,3 8 0 0,0
13.12.2017 17:00:00 4,5 3,4 4,2 46 25 67 36 ZZW 990,2 10 0 0,0
13.12.2017 16:00:00 4,1 2,8 3,8 53 29 68 37 ZZW 991,2 15 0 0,1
13.12.2017 15:00:00 3,7 2,5 3,3 53 29 70 38 ZZW 992,1 6 0 0,1
13.12.2017 14:00:00 3,5 2,1 3,1 59 32 76 41 ZZW 993,4 9 0 0,0
13.12.2017 13:00:00 3,5 2,2 3,2 60 32 78 42 ZZW 994,9 6 0 0,0
13.12.2017 12:00:00 3,9 2,3 3,2 64 35 79 43 ZZW 996,3 10 0 0,2
13.12.2017 11:00:00 3,7 2,2 3,2 61 33 77 42 Z 997,7 6 0 0,1
13.12.2017 10:00:00 3,6 1,8 3,0 64 34 80 43 Z 999,1 8 0 0,1
13.12.2017 09:00:00 3,8 1,9 3,1 58 32 74 40 Z 1000,6 4,5 0 0,0
13.12.2017 08:00:00 3,9 1,5 3,5 55 30 74 40 ZZW 1001,6 8 0 0,0
13.12.2017 07:00:00 4,0 1,6 3,6 58 31 71 38 Z 1002,3 9 0 0,0
13.12.2017 06:00:00 4,2 1,3 3,5 55 30 71 38 ZZW 1003,6 10 0 0,0
13.12.2017 05:00:00 3,9 0,8 3,2 56 30 67 36 ZZW 1005,0 9 0 0,0
13.12.2017 04:00:00 3,7 1,2 2,7 56 30 66 35 ZZW 1005,5 8 0 0,0
13.12.2017 03:00:00 3,4 1,5 2,8 53 28 65 35 ZZW 1006,4 8 0 0,0
13.12.2017 02:00:00 2,9 1,5 2,7 53 28 65 35 ZZW 1006,9 6 0 0,0
13.12.2017 01:00:00 3,7 1,8 2,7 54 29 64 35 ZZW 1007,3 9 0 0,0
13.12.2017 00:00:00 4,7 2,4 3,6 45 25 59 32 ZW 1007,5 17 0 0,0
12.12.2017 23:00:00 4,9 3,0 3,9 46 25 55 30 ZW 1007,3 14 0 0,0
12.12.2017 22:00:00 5,1 3,1 3,7 46 25 57 31 ZW 1007,2 22 0 0,0
12.12.2017 21:00:00 5,7 3,3 4,8 42 23 52 28 ZW 1007,2 24 0 0,0
12.12.2017 20:00:00 6,4 0,3 4,6 32 17 48 26 WZW 1007,1 69 0 0,0
12.12.2017 19:00:00 6,6 -0,3 5,0 35 19 50 27 W 1006,5 57 0 0,0
12.12.2017 18:00:00 6,2 1,1 4,5 26 14 50 27 W 1006,0 59 0 0,0
12.12.2017 17:00:00 6,3 -0,1 4,9 22 12 32 17 W 1005,3 70 0 0,0
12.12.2017 16:00:00 5,8 -0,8 3,3 29 15 35 19 WNW 1004,3 40 22 0,0
12.12.2017 15:00:00 5,3 -1,0 3,3 24 13 35 19 NW 1003,0 41 9 0,0
12.12.2017 14:00:00 4,7 1,2 3,8 16 9 41 22 NNW 1002,0 30 0 0,0
12.12.2017 13:00:00 4,3 0,2 2,8 27 15 40 21 NW 1000,9 24 0 0,2

tt = temperatuur
td = dauwpunt
tt 5cm = temperatuur 5cm
ff = windsnelheid
fx = windstoten
dd = windrichting
ppp = luchtdruk
vv = zicht
sd = Zonneschijnduur
rr = neerslag

Weerstations in de omgeving